• In Belarus
  • List of Countries
  • For 7 days
  • Water Temperature
  • Satellite Maps
  • Weather Map
  • Weather Widgets
  • user-avatar
    Login

    Hourly Weather Chharra

    Today, 20 September, Thursday

    Time Temperature Precipitation Wind Pressure Humidity
    00:00 +28°C° 0 mm 1 mps 737 mmHg 62%
    01:00 +28°C° 0 mm 1 mps 737 mmHg 64%
    02:00 +27°C° 0 mm 1 mps 737 mmHg 65%
    03:00 +27°C° 0 mm 1 mps 737 mmHg 66%
    04:00 +27°C° 0 mm 1 mps 737 mmHg 68%
    05:00 +26°C° 0 mm 1 mps 737 mmHg 69%
    06:00 +28°C° 0 mm 1 mps 737 mmHg 66%
    07:00 +29°C° 0 mm 1 mps 738 mmHg 64%
    08:00 +30°C° 0 mm 1 mps 738 mmHg 61%
    09:00 +31°C° 0 mm 1 mps 738 mmHg 56%
    10:00 +33°C° 0 mm 1 mps 738 mmHg 50%
    11:00 +35°C° 0 mm 1 mps 738 mmHg 45%
    12:00 +36°C° 0 mm 2 mps 738 mmHg 42%
    13:00 +37°C° 0 mm 2 mps 737 mmHg 38%
    14:00 +38°C° 0 mm 2 mps 737 mmHg 35%
    15:00 +37°C° 0 mm 2 mps 737 mmHg 38%
    16:00 +36°C° 0 mm 2 mps 736 mmHg 41%
    17:00 +35°C° 0 mm 2 mps 736 mmHg 44%
    18:00 +34°C° 0 mm 2 mps 737 mmHg 46%
    19:00 +32°C° 0 mm 2 mps 737 mmHg 48%
    20:00 +31°C° 0 mm 2 mps 738 mmHg 50%
    21:00 +30°C° 0 mm 2 mps 738 mmHg 51%
    22:00 +30°C° 0 mm 3 mps 738 mmHg 52%
    23:00 +29°C° 0 mm 3 mps 738 mmHg 54%

    Tomorrow, 21 September, Friday

    Time Temperature Precipitation Wind Pressure Humidity
    00:00 +29°C° 0 mm 3 mps 738 mmHg 56%
    01:00 +29°C° 0 mm 3 mps 738 mmHg 58%
    02:00 +28°C° 0 mm 3 mps 738 mmHg 61%
    03:00 +28°C° 0 mm 3 mps 738 mmHg 65%
    04:00 +28°C° 0 mm 3 mps 738 mmHg 70%
    05:00 +28°C° 0 mm 3 mps 738 mmHg 74%
    06:00 +29°C° 0 mm 4 mps 739 mmHg 73%
    07:00 +30°C° 0 mm 4 mps 739 mmHg 72%
    08:00 +32°C° 0 mm 5 mps 740 mmHg 71%
    09:00 +33°C° 0 mm 5 mps 740 mmHg 66%
    10:00 +34°C° 0 mm 5 mps 740 mmHg 62%
    11:00 +35°C° 0 mm 5 mps 741 mmHg 57%
    12:00 +35°C° 0.9 mm 5 mps 740 mmHg 58%
    13:00 +34°C° 0.9 mm 6 mps 740 mmHg 59%
    14:00 +34°C° 0.9 mm 6 mps 739 mmHg 61%
    15:00 +33°C° 0.1 mm 5 mps 739 mmHg 66%
    16:00 +30°C° 0.1 mm 5 mps 739 mmHg 71%
    17:00 +29°C° 0.1 mm 4 mps 739 mmHg 76%
    18:00 +29°C° 0 mm 4 mps 739 mmHg 76%
    19:00 +28°C° 0 mm 4 mps 740 mmHg 77%
    20:00 +28°C° 0 mm 4 mps 740 mmHg 78%
    21:00 +27°C° 0.7 mm 4 mps 740 mmHg 80%
    22:00 +27°C° 0.7 mm 4 mps 740 mmHg 81%
    23:00 +27°C° 0.7 mm 4 mps 740 mmHg 83%

    Day after tomorrow, 22 September, Saturday

    Time Temperature Precipitation Wind Pressure Humidity
    00:00 +26°C° 2 mm 4 mps 740 mmHg 84%
    01:00 +26°C° 2 mm 4 mps 740 mmHg 86%
    02:00 +26°C° 2 mm 3 mps 739 mmHg 87%
    03:00 +26°C° 1.5 mm 4 mps 739 mmHg 88%
    04:00 +26°C° 1.5 mm 4 mps 739 mmHg 89%
    05:00 +26°C° 1.5 mm 4 mps 739 mmHg 89%
    06:00 +26°C° 0.6 mm 4 mps 740 mmHg 88%
    07:00 +26°C° 0.6 mm 5 mps 741 mmHg 87%
    08:00 +27°C° 0.6 mm 5 mps 741 mmHg 85%
    09:00 +28°C° 0.3 mm 6 mps 741 mmHg 81%
    10:00 +29°C° 0.3 mm 6 mps 741 mmHg 77%
    11:00 +30°C° 0.3 mm 6 mps 741 mmHg 73%
    12:00 +32°C° 0.8 mm 6 mps 740 mmHg 71%
    13:00 +33°C° 0.8 mm 6 mps 739 mmHg 68%
    14:00 +33°C° 0.8 mm 6 mps 739 mmHg 65%
    15:00 +33°C° 0.8 mm 6 mps 738 mmHg 68%
    16:00 +32°C° 0.8 mm 5 mps 738 mmHg 71%
    17:00 +32°C° 0.8 mm 4 mps 738 mmHg 74%
    18:00 +30°C° 0.6 mm 4 mps 739 mmHg 77%
    19:00 +29°C° 0.6 mm 4 mps 739 mmHg 79%
    20:00 +29°C° 0.6 mm 4 mps 740 mmHg 82%
    21:00 +28°C° 0.5 mm 4 mps 740 mmHg 83%
    22:00 +28°C° 0.5 mm 4 mps 740 mmHg 84%
    23:00 +28°C° 0.5 mm 4 mps 740 mmHg 86%

    23 September, Sunday

    Time Temperature Precipitation Wind Pressure Humidity
    00:00 +28°C° 1.1 mm 4 mps 740 mmHg 85%
    01:00 +28°C° 1.1 mm 4 mps 740 mmHg 85%
    02:00 +28°C° 1.1 mm 4 mps 740 mmHg 85%
    03:00 +27°C° 0.6 mm 4 mps 740 mmHg 86%
    04:00 +27°C° 0.6 mm 4 mps 740 mmHg 87%
    05:00 +27°C° 0.6 mm 4 mps 740 mmHg 89%
    06:00 +28°C° 0.4 mm 4 mps 740 mmHg 84%
    07:00 +29°C° 0.4 mm 4 mps 741 mmHg 80%
    08:00 +30°C° 0.4 mm 4 mps 741 mmHg 75%
    09:00 +32°C° 0.3 mm 5 mps 741 mmHg 70%
    10:00 +33°C° 0.3 mm 5 mps 741 mmHg 64%
    11:00 +34°C° 0.3 mm 5 mps 741 mmHg 59%
    12:00 +35°C° 0 mm 5 mps 740 mmHg 57%
    13:00 +35°C° 0 mm 5 mps 739 mmHg 55%
    14:00 +36°C° 0 mm 5 mps 739 mmHg 53%
    15:00 +35°C° 0 mm 4 mps 738 mmHg 56%
    16:00 +34°C° 0 mm 4 mps 738 mmHg 59%
    17:00 +34°C° 0 mm 3 mps 738 mmHg 62%
    18:00 +33°C° 0 mm 3 mps 739 mmHg 64%
    19:00 +31°C° 0 mm 3 mps 739 mmHg 66%
    20:00 +30°C° 0 mm 2 mps 740 mmHg 67%
    21:00 +30°C° 0 mm 2 mps 740 mmHg 69%
    22:00 +29°C° 0 mm 2 mps 740 mmHg 71%
    23:00 +29°C° 0 mm 2 mps 740 mmHg 73%

    24 September, Monday

    Time Temperature Precipitation Wind Pressure Humidity
    00:00 +29°C° 0.1 mm 2 mps 740 mmHg 75%
    01:00 +28°C° 0.1 mm 2 mps 739 mmHg 77%
    02:00 +28°C° 0.1 mm 2 mps 739 mmHg 79%
    03:00 +28°C° 0 mm 2 mps 739 mmHg 80%
    04:00 +27°C° 0 mm 2 mps 739 mmHg 81%
    05:00 +27°C° 0 mm 2 mps 739 mmHg 82%
    06:00 +28°C° 0 mm 2 mps 740 mmHg 79%
    07:00 +29°C° 0 mm 2 mps 740 mmHg 76%
    08:00 +30°C° 0 mm 3 mps 741 mmHg 73%
    09:00 +31°C° 0.2 mm 3 mps 741 mmHg 68%
    10:00 +33°C° 0.2 mm 3 mps 740 mmHg 63%
    11:00 +34°C° 0.2 mm 4 mps 740 mmHg 59%
    12:00 +35°C° 0.2 mm 4 mps 739 mmHg 57%
    13:00 +35°C° 0.2 mm 4 mps 739 mmHg 56%
    14:00 +36°C° 0.2 mm 4 mps 738 mmHg 54%
    15:00 +35°C° 0.1 mm 3 mps 738 mmHg 57%
    16:00 +34°C° 0.1 mm 3 mps 737 mmHg 60%
    17:00 +34°C° 0.1 mm 3 mps 737 mmHg 63%
    18:00 +33°C° 0 mm 3 mps 738 mmHg 65%
    19:00 +31°C° 0 mm 3 mps 738 mmHg 67%
    20:00 +30°C° 0 mm 3 mps 739 mmHg 69%
    21:00 +30°C° 0.5 mm 3 mps 739 mmHg 72%
    22:00 +30°C° 0.5 mm 3 mps 739 mmHg 74%
    23:00 +29°C° 0.5 mm 3 mps 739 mmHg 77%

    25 September, Tuesday

    Time Temperature Precipitation Wind Pressure Humidity
    00:00 +29°C° 0.3 mm 3 mps 738 mmHg 78%
    01:00 +29°C° 0.3 mm 2 mps 738 mmHg 79%
    02:00 +28°C° 0.3 mm 2 mps 738 mmHg 81%
    03:00 +28°C° 1.4 mm 3 mps 738 mmHg 82%
    04:00 +28°C° 1.4 mm 3 mps 738 mmHg 84%
    05:00 +27°C° 1.4 mm 3 mps 738 mmHg 86%
    06:00 +28°C° 1.2 mm 3 mps 738 mmHg 83%
    07:00 +29°C° 1.2 mm 4 mps 739 mmHg 80%
    08:00 +30°C° 1.2 mm 4 mps 739 mmHg 78%
    09:00 +32°C° 3.2 mm 4 mps 739 mmHg 75%
    10:00 +32°C° 3.2 mm 4 mps 739 mmHg 71%
    11:00 +33°C° 3.2 mm 4 mps 738 mmHg 68%
    12:00 +33°C° 3.7 mm 4 mps 738 mmHg 68%
    13:00 +34°C° 3.7 mm 3 mps 737 mmHg 67%
    14:00 +34°C° 3.7 mm 3 mps 736 mmHg 66%
    15:00 +34°C° 1.1 mm 2 mps 736 mmHg 68%
    16:00 +32°C° 1.1 mm 2 mps 736 mmHg 70%
    17:00 +32°C° 1.1 mm 1 mps 736 mmHg 73%
    18:00 +31°C° 0.1 mm 1 mps 737 mmHg 75%
    19:00 +30°C° 0.1 mm 2 mps 737 mmHg 77%
    20:00 +30°C° 0.1 mm 2 mps 737 mmHg 80%
    21:00 +29°C° 0.3 mm 2 mps 737 mmHg 81%
    22:00 +29°C° 0.3 mm 1 mps 737 mmHg 82%
    23:00 +29°C° 0.3 mm 1 mps 737 mmHg 83%
    Show more